Wilkerson Pass, CO

3:18 AM MDT on May 25, 2017 (GMT -0600)
Wilkerson Pass

Weather History for K4BM - June, 2013

Change the Weather History Date:

Friday, June 28, 2013

  Actual Average (KAFF) Record (KAFF)
Temperature  
Mean Temperature 60 °F -  
Max Temperature 71 °F 79 °F 91 °F (2013)
Min Temperature 50 °F 50 °F 45 °F (2010)
Degree Days  
Heating Degree Days 4    
Growing Degree Days 10 (Base 50)    
Moisture  
Dew Point 35 °F    
Average Humidity 43    
Maximum Humidity 71    
Minimum Humidity 19    
Precipitation  
Precipitation 0.00 in - - ()
Sea Level Pressure  
Sea Level Pressure 30.80 in    
Wind  
Wind Speed 9 mph (SW)    
Max Wind Speed 18 mph    
Max Gust Speed 24 mph    
Visibility 10 miles    
Events Thunderstorm    
Averages and records for this station are not official NWS values.
T = Trace of Precipitation, MM = Missing Value Source: NWS Daily Summary

Daily Weather History Graph

Daily Weather History Graph

Search for Another Location

Airport or City:

Trip Planner

Search our weather history database for the weather conditions in past years. The results will help you decide how hot, cold, wet, or windy it might be!

Date:

Astronomy

Jun. 28, 2013 Rise Set
Actual Time 5:38 AM MDT 8:31 PM MDT
Civil Twilight 5:06 AM MDT 9:04 PM MDT
Nautical Twilight 4:26 AM MDT 9:44 PM MDT
Astronomical Twilight 3:39 AM MDT 10:30 PM MDT
Moon No Moon Rise 11:46 AM MDT (6/28)
Length of Visible Light 15h 57m
Length of Day
14h 53m
Waning Gibbous, 65% of the Moon is Illuminated
Jun 28
Waning Gibbous
Jun 29
Last Quarter
Jul 8
New
Jul 15
First Quarter
Jul 22
Full

Hourly Weather History & Observations

Time (MDT) Temp. Dew Point Humidity Pressure Visibility Wind Dir Wind Speed Gust Speed Precip Events Conditions
12:03 AM 55.4 °F 35.6 °F 47% 30.83 in 10.0 mi SSW 10.4 mph 20.7 mph N/A   Clear
12:23 AM 55.4 °F 35.6 °F 47% 30.83 in 10.0 mi South 12.7 mph 24.2 mph N/A   Clear
12:38 AM 55.4 °F 35.6 °F 47% 30.83 in 10.0 mi SSW 18.4 mph 23.0 mph N/A   Clear
1:03 AM 53.6 °F 37.4 °F 54% 30.83 in 10.0 mi SSW 17.3 mph 24.2 mph N/A   Scattered Clouds
1:22 AM 53.6 °F 37.4 °F 54% 30.83 in 10.0 mi SSW 17.3 mph 24.2 mph N/A   Clear
1:35 AM 53.6 °F 39.2 °F 58% 30.83 in 10.0 mi SSW 18.4 mph 23.0 mph N/A   Clear
1:59 AM 51.8 °F 39.2 °F 62% 30.83 in 10.0 mi SSW 12.7 mph 17.3 mph N/A   Clear
2:18 AM 51.8 °F 39.2 °F 62% 30.82 in 10.0 mi SSW 8.1 mph 16.1 mph N/A   Clear
2:43 AM 51.8 °F 39.2 °F 62% 30.83 in 10.0 mi SW 6.9 mph - N/A   Clear
3:00 AM 51.8 °F 41.0 °F 67% 30.81 in 10.0 mi SSW 8.1 mph - N/A   Clear
3:23 AM 51.8 °F 39.2 °F 62% 30.81 in 10.0 mi WSW 4.6 mph - N/A   Clear
3:41 AM 50.0 °F 41.0 °F 71% 30.80 in 10.0 mi WSW 6.9 mph - N/A   Clear
4:03 AM 51.8 °F 37.4 °F 58% 30.80 in 10.0 mi West 10.4 mph 16.1 mph N/A   Clear
4:21 AM 50.0 °F 37.4 °F 62% 30.78 in 10.0 mi West 10.4 mph 19.6 mph N/A   Clear
4:42 AM 51.8 °F 39.2 °F 62% 30.79 in 10.0 mi West 9.2 mph 16.1 mph N/A   Clear
5:02 AM 51.8 °F 39.2 °F 62% 30.79 in 10.0 mi WSW 8.1 mph - N/A   Clear
5:20 AM 51.8 °F 39.2 °F 62% 30.79 in 10.0 mi WSW 6.9 mph - N/A   Clear
5:42 AM 51.8 °F 41.0 °F 67% 30.79 in 10.0 mi WSW 6.9 mph - N/A   Clear
6:03 AM 51.8 °F 39.2 °F 62% 30.80 in 10.0 mi West 6.9 mph - N/A   Clear
6:23 AM 51.8 °F 37.4 °F 58% 30.80 in 10.0 mi West 8.1 mph - N/A   Clear
6:43 AM 53.6 °F 37.4 °F 54% 30.81 in 10.0 mi West 8.1 mph - N/A   Clear
7:02 AM 53.6 °F 37.4 °F 54% 30.81 in 10.0 mi West 8.1 mph - N/A   Clear
7:23 AM 55.4 °F 37.4 °F 51% 30.81 in 10.0 mi West 4.6 mph - N/A   Clear
7:42 AM 57.2 °F 37.4 °F 48% 30.82 in 10.0 mi West 3.5 mph - N/A   Clear
8:03 AM 60.8 °F 35.6 °F 39% 30.83 in 10.0 mi Calm Calm - N/A   Clear
8:23 AM 60.8 °F 35.6 °F 39% 30.83 in 10.0 mi Calm Calm - N/A   Clear
8:42 AM 60.8 °F 35.6 °F 39% 30.83 in 10.0 mi Calm Calm - N/A   Clear
9:02 AM 62.6 °F 33.8 °F 34% 30.83 in 10.0 mi Calm Calm - N/A   Clear
9:23 AM 62.6 °F 35.6 °F 37% 30.82 in 10.0 mi Calm Calm - N/A   Clear
9:40 AM 64.4 °F 35.6 °F 34% 30.81 in 10.0 mi Calm Calm - N/A   Clear
10:00 AM 68.0 °F 35.6 °F 30% 30.81 in 10.0 mi Calm Calm - N/A   Clear
10:23 AM 68.0 °F 33.8 °F 28% 30.81 in 10.0 mi SW 4.6 mph - N/A   Scattered Clouds
10:43 AM 68.0 °F 33.8 °F 28% 30.81 in 10.0 mi Calm Calm - N/A   Scattered Clouds
10:59 AM 69.8 °F 32.0 °F 25% 30.82 in 10.0 mi SW 4.6 mph - N/A   Scattered Clouds
11:23 AM 69.8 °F 30.2 °F 23% 30.81 in 10.0 mi SW 3.5 mph - N/A   Clear
11:41 AM 69.8 °F 28.4 °F 21% 30.81 in 10.0 mi Calm Calm - N/A   Clear
12:03 PM 68.0 °F 28.4 °F 23% 30.80 in 10.0 mi South 4.6 mph - N/A   Clear
12:40 PM 68.0 °F 28.4 °F 23% 30.79 in 10.0 mi NE 4.6 mph - N/A   Mostly Cloudy
12:57 PM 66.2 °F 28.4 °F 24% 30.79 in 10.0 mi West 3.5 mph - N/A   Overcast
1:13 PM 68.0 °F 28.4 °F 23% 30.79 in 10.0 mi SW 4.6 mph - N/A Thunderstorm Mostly Cloudy
1:40 PM 64.4 °F 26.6 °F 24% 30.80 in 10.0 mi SSE 6.9 mph - N/A   Overcast
2:20 PM 71.6 °F 26.6 °F 19% 30.77 in 10.0 mi SE 4.6 mph - N/A   Scattered Clouds
2:36 PM 71.6 °F 28.4 °F 20% 30.76 in 10.0 mi NE 8.1 mph - N/A   Clear
3:03 PM 71.6 °F 26.6 °F 19% 30.76 in 10.0 mi North - - N/A   Clear
3:04 PM 71.6 °F 26.6 °F 19% 30.76 in 10.0 mi North - - N/A   Clear
3:43 PM 69.8 °F 26.6 °F 20% 30.75 in 10.0 mi ENE 4.6 mph - N/A   Clear
3:50 PM 68.0 °F 30.2 °F 24% 30.74 in 10.0 mi SSE 10.4 mph - N/A   Scattered Clouds